Regional Weather Roundup
Issued by NWS

Home | Current Version | Previous Version | Text Only | Print | Product List | Glossary On
Versions: 1 2 3 4 5 6 7 8 9 10 11 12 13 14 15 16 17 18 19 20 21 22 23 24 25 26 27 28 29 30 31 32 33 34 35 36 37 38 39 40 41 42 43 44 45 46 47 48 49 50
000
ASUS45 KCYS 031410
RWRWY

WYOMING REGIONAL WEATHER ROUNDUP
NATIONAL WEATHER SERVICE CHEYENNE WY
800 AM MDT SUN MAY 03 2015

NOTE:  "FAIR" INDICATES FEW OR NO CLOUDS BELOW 12,000 FEET
WITH NO SIGNIFICANT WEATHER AND/OR OBSTRUCTIONS TO VISIBILITY.

WYZ001-031500-
YELLOWSTONE NATIONAL PARK

CITY           SKY/WX    TMP DP  RH WIND       PRES   REMARKS
LK YELLOWSTONE   N/A     37  25  61 CALM      30.06R
W YELLOWSTONE  NOT AVBL

$$
WYZ002>013-054>058-071-098>099-031500-
NORTHERN WYOMING

CITY           SKY/WX    TMP DP  RH WIND       PRES   REMARKS
JACKSON        PTSUNNY   46  39  76 S12       30.01R
CODY           FAIR      45  34  65 N7        30.00R
GREYBULL       FAIR      52  32  46 NW13      29.96R
WORLAND        FAIR      52  36  54 NW9       29.97R
SHERIDAN       FAIR      49  38  65 NW6       30.03R
BUFFALO        FAIR      51  38  60 N9        30.03R
GILLETTE       FAIR      52  37  56 N9        29.97S
HULETT         FAIR      54  34  47 E10       30.00R
NEWCASTLE      FAIR      57  30  35 MISG      29.90R

$$
WYZ014>020-022>026-101>103-031500-
CENTRAL WYOMING

CITY           SKY/WX    TMP DP  RH WIND       PRES   REMARKS
BIG PINEY      FAIR      41  31  67 CALM      30.06R
PINEDALE       PTSUNNY   39  34  81 NW6       30.06R WCI  35
DUBOIS         PTSUNNY   41  28  60 NW10      30.04R
LANDER         FAIR      54  31  41 NW8       29.97R
RIVERTON       FAIR      53  30  41 E13       29.97R
CASPER         FAIR      52  31  44 NE7       30.01R
DOUGLAS        FAIR      48  33  56 NW13      29.98R

$$
WYZ021-027>030-104>119-031500-
SOUTHERN WYOMING

CITY           SKY/WX    TMP DP  RH WIND       PRES   REMARKS
EVANSTON       FAIR      48  36  63 NE9       30.05F
KEMMERER       CLOUDY    46  36  66 SE8       30.07S
FORT BRIDGER   CLOUDY    50  39  66 W6        30.11R
ROCK SPRINGS   FAIR      49  39  68 S9        30.04R
DIXON          FAIR      49  36  61 E6        30.06F
RAWLINS        CLOUDY    54  34  46 W6        30.02S
SARATOGA       FAIR      50  34  53 S6        30.06R
LARAMIE        FAIR      48  34  58 NE3       30.04R
CHEYENNE       FAIR      58  36  43 W14       29.98R
TORRINGTON     FAIR      55  43  63 CALM      29.89R
PINE BLUFFS    FAIR      54  41  62 SW5       29.95R

$$


USA.gov is the U.S. government's official web portal to all federal, state and local government web resources and services.